COSMOS 1038

Satellite information

Favourite Embed

Satellite Type and Status

PAYLOADIN ORBIT

Key statistics

Satellite COSMOS 1038 at a glance.

Uptime

17080

Days in orbit

Revolutions

≈ 12.5

Per day

Orbit

LEO

Low Earth Orbit

Inclination

74.0

Latest

Satellite identification and parameters

Extended collection of information and parameters for COSMOS 1038.

Object identification

Identified? True

Debris? False

Object name: COSMOS 1038

International designator: 1978-091E

Object number (NORAD): 11047

Object ID (CCSDS): 11047

Country: COMMONWEALTH OF INDEPENDENT STATES (CIS)

Current information (Y/N): Y

RCS size: MEDIUM

Orbital parameters

Period: 115.577 minutes

Inclination: 74.034 deg

SMA: 7859.711 km

Apoapsis: 1486.816 km

Periapsis: 1476.335 km

RAAN: 246.2829 deg

Eccentricy: 0.0006668

Argument of periapsis: 287.6369 deg

Mean anomaly: 245.9503 deg

Mean motion: 12.45927953 rev/day

Mean motion (dot): 0.00000009 rev/day2

B* drag term: 0.00016993 1/REarth

Two-line elements (TLE)

Creation date: July 9, 2025, 2:22 a.m.

Reference frame: TEME

Reference center: EARTH

Epoch: July 8, 2025, 9:02 p.m. UTC

TLE line 0: 0 COSMOS 1038

TLE line 1: 1 11047U 78091E 25189.87678365 .00000009 00000-0 16993-3 0 9993

TLE line 2: 2 11047 74.0340 246.2829 0006668 287.6369 245.9503 12.45927953718071

Live tracking on map

Real-time ground track for satellite COSMOS 1038.

In-orbit conjunctions

There are no conjunctions computed for COSMOS 1038, at the moment. Check back to stay up to date, as we update our databases every day.

Go to all conjunctions

Associated space launch

Military communications satellites

COSMOS 1038 was lifted into orbit during the mission ‘Kosmos-3M | Strela-1M 153-160’, on board a Kosmos-3M space rocket.

The launch took place on Oct. 4, 1978, 3:49 a.m. from 132/1 (132L).

For more information about the launch, click the button.

Launch to space Kosmos-3M | Strela-1M 153-160
Kosmos-3M | Strela-1M 153-160

Agency: N/A

Status: Launch Successful

Launch date: Oct. 4, 1978, 3:49 a.m. UTC

Rocket: Kosmos-3M

Launch pad: 132/1 (132L)

Location: Plesetsk Cosmodrome, Russian Federation

...

Latest news about this satellite

There are no fresh news available about this satellite. Check back as we update our databases every day.


Newsletter sign-up

Weekly statistics, charts and insights to help you stay on top of the space industry.